Weather History for Immokalee Regional Airport [I, FL

Change the Weather History Date:

Saturday, January 11, 2014

  Actual Average (KFMY) Record (KFMY)
Temperature  
Mean Temperature 76 °F 64 °F  
Max Temperature 87 °F 74 °F 86 °F (1975)
Min Temperature 66 °F 53 °F 31 °F (2010)
Degree Days  
Heating Degree Days 0 4  
Month to date heating degree days 44  
Since 1 July heating degree days 137  
Cooling Degree Days 12 3  
Month to date cooling degree days 33  
Year to date cooling degree days 33  
Growing Degree Days 26 (Base 50)    
Moisture  
Dew Point 74 °F    
Average Humidity 79    
Maximum Humidity 100    
Minimum Humidity 58    
Precipitation  
Precipitation 0.00 in 0.07 in 1.63 in (1973)
Month to date precipitation 0.70  
Year to date precipitation 0.70  
Sea Level Pressure  
Sea Level Pressure 30.07 in    
Wind  
Wind Speed 6 mph (South)    
Max Wind Speed 16 mph    
Max Gust Speed 22 mph    
Visibility 6 miles    
Events      
T = Trace of Precipitation, MM = Missing Value Source: NWS Daily Summary

Daily Weather History Graph

Daily Weather History Graph

Search for Another Location

Airport:

Trip Planner

Search our weather history database for the weather conditions in past years. The results will help you decide how hot, cold, wet, or windy it might be!

Date:

Astronomy

Jan. 11, 2014 Rise Set
Actual Time 7:15 AM EST 5:52 PM EST
Civil Twilight 6:50 AM EST 6:17 PM EST
Nautical Twilight 6:21 AM EST 6:45 PM EST
Astronomical Twilight 5:53 AM EST 7:13 PM EST
Moon 2:31 PM EST (1/11) 3:23 AM EST (1/11)
Length of Visible Light 11h 26m
Length of Day
10h 36m
Waxing Gibbous, 83% of the Moon is Illuminated
Jan 11
Waxing Gibbous
Jan 15
Full
Jan 24
Last Quarter
Jan 30
New
Feb 6
First Quarter

Hourly Weather History & Observations

Time (EST) Temp. Heat Index Dew Point Humidity Pressure Visibility Wind Dir Wind Speed Gust Speed Precip Events Conditions
12:15 AM 66.2 °F - - N/A% 30.11 in 0.2 mi Calm Calm - 0.00 in   Unknown
12:35 AM 66.2 °F - - N/A% 30.10 in 0.8 mi ESE 4.6 mph - 0.00 in   Unknown
12:55 AM 69.8 °F - - N/A% 30.10 in 7.0 mi Calm Calm - 0.00 in   Clear
1:15 AM 69.8 °F - - N/A% 30.10 in 5.0 mi Calm Calm - 0.00 in   Clear
1:35 AM 69.8 °F - - N/A% 30.10 in 4.0 mi SE 4.6 mph - 0.00 in   Clear
1:55 AM 69.8 °F - - N/A% 30.09 in 5.0 mi SE 4.6 mph - 0.00 in   Clear
2:15 AM 69.8 °F - - N/A% 30.09 in 4.0 mi SE 5.8 mph - 0.00 in   Clear
2:35 AM 69.8 °F - - N/A% 30.09 in 3.0 mi SE 4.6 mph - 0.00 in   Partly Cloudy
2:55 AM 69.8 °F - - N/A% 30.08 in 2.5 mi SE 4.6 mph - 0.00 in   Partly Cloudy
3:15 AM 69.8 °F - - N/A% 30.08 in 0.5 mi SE 4.6 mph - 0.00 in   Overcast
3:35 AM 69.8 °F - - N/A% 30.07 in 0.2 mi SE 4.6 mph - 0.00 in   Overcast
3:55 AM 69.8 °F - - N/A% 30.07 in 0.2 mi SSE 4.6 mph - 0.00 in   Overcast
4:15 AM 69.8 °F - - N/A% 30.07 in 0.2 mi SE 4.6 mph - 0.00 in   Overcast
4:35 AM 69.8 °F - - N/A% 30.07 in 0.2 mi SE 4.6 mph - 0.00 in   Overcast
4:55 AM 69.8 °F - - N/A% 30.07 in 0.2 mi SE 4.6 mph - 0.00 in   Overcast
5:15 AM 69.8 °F - - N/A% 30.07 in 0.2 mi SE 5.8 mph - 0.00 in   Overcast
5:35 AM 69.8 °F - - N/A% 30.08 in 0.2 mi SSE 3.5 mph - 0.00 in   Overcast
5:55 AM 69.8 °F - - N/A% 30.07 in 0.2 mi SE 3.5 mph - 0.00 in   Overcast
6:15 AM 69.8 °F - - N/A% 30.08 in 0.2 mi SE 4.6 mph - 0.00 in   Overcast
6:35 AM 69.8 °F - - N/A% 30.08 in 0.2 mi SSE 5.8 mph - 0.00 in   Overcast
6:55 AM 69.8 °F - - N/A% 30.09 in 0.2 mi South 3.5 mph - 0.00 in   Overcast
7:15 AM 69.8 °F - - N/A% 30.09 in 0.5 mi SSE 3.5 mph - 0.00 in   Overcast
7:35 AM 69.8 °F - - N/A% 30.09 in 0.2 mi SSE 3.5 mph - 0.00 in   Overcast
7:55 AM 68.0 °F - - N/A% 30.09 in 0.2 mi SSE 3.5 mph - 0.00 in   Overcast
8:15 AM 69.8 °F - - N/A% 30.10 in 0.2 mi SE 4.6 mph - 0.00 in   Overcast
8:35 AM 69.8 °F - - N/A% 30.11 in 0.8 mi South 3.5 mph - 0.00 in   Overcast
8:55 AM 71.6 °F - - N/A% 30.11 in 8.0 mi SSE 5.8 mph - 0.00 in   Overcast
9:15 AM 73.4 °F - - N/A% 30.12 in 10.0 mi SSE 6.9 mph - 0.00 in   Partly Cloudy
9:35 AM 75.2 °F - - N/A% 30.13 in 10.0 mi SSE 10.4 mph - 0.00 in   Clear
9:55 AM 77.0 °F - - N/A% 30.13 in 10.0 mi South 11.5 mph - 0.00 in   Clear
10:15 AM 78.8 °F - 78.8 °F 100% 30.13 in 10.0 mi South 12.7 mph 19.6 mph 0.00 in   Partly Cloudy
10:35 AM 80.6 °F 89.3 °F 80.6 °F 100% 30.13 in 10.0 mi South 15.0 mph 18.4 mph 0.00 in   Partly Cloudy
10:55 AM 80.6 °F 88.1 °F 78.8 °F 94% 30.13 in 10.0 mi South 12.7 mph 16.1 mph 0.00 in   Mostly Cloudy
11:15 AM 82.4 °F 92.4 °F 78.8 °F 89% 30.12 in 10.0 mi South 10.4 mph 19.6 mph 0.00 in   Mostly Cloudy
11:35 AM 82.4 °F 90.9 °F 77.0 °F 84% 30.11 in 10.0 mi SSW 11.5 mph 20.7 mph 0.00 in   Scattered Clouds
11:55 AM 84.2 °F 94.1 °F 77.0 °F 79% 30.10 in 10.0 mi South 11.5 mph - 0.00 in   Scattered Clouds
12:15 PM 86.0 °F 95.1 °F 75.2 °F 70% 30.09 in 10.0 mi SSW 9.2 mph 18.4 mph 0.00 in   Scattered Clouds
12:35 PM 86.0 °F 93.4 °F 73.4 °F 66% 30.07 in 10.0 mi SSW 12.7 mph 18.4 mph 0.00 in   Partly Cloudy
12:55 PM 86.0 °F 93.4 °F 73.4 °F 66% 30.06 in 10.0 mi South 9.2 mph 20.7 mph 0.00 in   Clear
1:15 PM 86.0 °F 93.4 °F 73.4 °F 66% 30.04 in 10.0 mi South 10.4 mph 19.6 mph 0.00 in   Partly Cloudy
1:35 PM 86.0 °F 93.4 °F 73.4 °F 66% 30.03 in 10.0 mi SSW 16.1 mph 21.9 mph 0.00 in   Scattered Clouds
1:55 PM 84.2 °F 89.6 °F 71.6 °F 66% 30.02 in 10.0 mi SSW 12.7 mph 21.9 mph 0.00 in   Partly Cloudy
2:15 PM 84.2 °F 90.9 °F 73.4 °F 70% 30.01 in 10.0 mi SSW 9.2 mph 18.4 mph 0.00 in   Partly Cloudy
2:35 PM 86.0 °F 93.4 °F 73.4 °F 66% 30.00 in 10.0 mi SSW 12.7 mph 18.4 mph 0.00 in   Partly Cloudy
2:55 PM 86.0 °F 91.8 °F 71.6 °F 62% 30.00 in 10.0 mi SSW 13.8 mph 18.4 mph 0.00 in   Partly Cloudy
3:15 PM 87.8 °F 93.8 °F 71.6 °F 58% 30.00 in 10.0 mi South 12.7 mph 17.3 mph 0.00 in   Scattered Clouds
3:35 PM 84.2 °F 89.6 °F 71.6 °F 66% 30.00 in 10.0 mi SSW 12.7 mph 19.6 mph 0.00 in   Scattered Clouds
3:55 PM 82.4 °F 87.2 °F 71.6 °F 70% 30.00 in 10.0 mi SSW 11.5 mph 19.6 mph 0.00 in   Partly Cloudy
4:15 PM 84.2 °F 89.6 °F 71.6 °F 66% 30.00 in 10.0 mi South 11.5 mph 16.1 mph 0.00 in   Scattered Clouds
4:35 PM 82.4 °F 87.2 °F 71.6 °F 70% 30.01 in 10.0 mi SW 11.5 mph 18.4 mph 0.00 in   Partly Cloudy
4:55 PM 82.4 °F 87.2 °F 71.6 °F 70% 30.01 in 10.0 mi SSW 11.5 mph 19.6 mph 0.00 in   Clear
5:15 PM 80.6 °F 84.6 °F 71.6 °F 74% 30.02 in 10.0 mi SSW 11.5 mph - 0.00 in   Clear
5:35 PM 80.6 °F 85.4 °F 73.4 °F 79% 30.02 in 10.0 mi SW 6.9 mph - 0.00 in   Clear
5:55 PM 78.8 °F - 73.4 °F 83% 30.02 in 10.0 mi SSW 9.2 mph - 0.00 in   Clear
6:15 PM 75.2 °F - 75.2 °F 100% 30.02 in 10.0 mi SSW 9.2 mph - 0.00 in   Clear
6:35 PM 75.2 °F - 75.2 °F 100% 30.02 in 10.0 mi SSW 9.2 mph - 0.00 in   Clear
6:55 PM 75.2 °F - 75.2 °F 100% 30.03 in 10.0 mi SSW 8.1 mph - 0.00 in   Clear
7:15 PM 73.4 °F - 73.4 °F 100% 30.04 in 10.0 mi Calm Calm - 0.00 in   Clear
7:35 PM 73.4 °F - 73.4 °F 100% 30.05 in 10.0 mi SW 5.8 mph - 0.00 in   Scattered Clouds
7:55 PM 73.4 °F - - N/A% 30.06 in 10.0 mi SW 4.6 mph - 0.00 in   Mostly Cloudy
8:15 PM 73.4 °F - - N/A% 30.06 in 10.0 mi SSW 5.8 mph - 0.00 in   Overcast
8:35 PM 73.4 °F - - N/A% 30.06 in 9.0 mi SSW 4.6 mph - 0.00 in   Scattered Clouds
8:55 PM 73.4 °F - - N/A% 30.07 in 10.0 mi SW 4.6 mph - 0.00 in   Clear
9:15 PM 73.4 °F - - N/A% 30.08 in 8.0 mi WSW 4.6 mph - 0.00 in   Clear
9:35 PM 73.4 °F - - N/A% 30.08 in 8.0 mi SW 5.8 mph - 0.00 in   Scattered Clouds
9:55 PM 73.4 °F - - N/A% 30.07 in 7.0 mi Calm Calm - 0.00 in   Scattered Clouds
10:15 PM 73.4 °F - - N/A% 30.07 in 7.0 mi SW 4.6 mph - 0.00 in   Partly Cloudy
10:35 PM 73.4 °F - - N/A% 30.05 in 6.0 mi South 3.5 mph - 0.00 in   Partly Cloudy
10:55 PM 73.4 °F - - N/A% 30.06 in 5.0 mi SW 3.5 mph - 0.00 in   Clear
11:15 PM 73.4 °F - - N/A% 30.06 in 6.0 mi WSW 5.8 mph - 0.00 in   Mostly Cloudy
11:35 PM 71.6 °F - - N/A% 30.07 in 9.0 mi West 5.8 mph - 0.00 in   Mostly Cloudy
11:55 PM 71.6 °F - - N/A% 30.07 in 10.0 mi West 5.8 mph - 0.00 in   Scattered Clouds